Regional Weather Roundup
Issued by NWS

Home | Current Version | Previous Version | Graphics & Text | Print | Product List | Glossary On
Versions: 1 2 3 4 5 6 7 8 9 10 11 12 13 14 15 16 17 18 19 20 21 22 23 24 25 26 27 28 29 30 31 32 33 34 35 36 37 38 39 40 41 42 43 44 45 46 47 48 49 50
000
ASUS43 KIND 241059
RWRIN

WEATHER ROUNDUP FOR INDIANA
NATIONAL WEATHER SERVICE INDIANAPOLIS IN
700 AM EDT SUN MAY 24 2015

NOTE: "FAIR" INDICATES FEW OR NO CLOUDS BELOW 12,000 FEET WITH NO
SIGNIFICANT WEATHER AND/OR OBSTRUCTIONS TO VISIBILITY.

* - STATION DOES NOT REPORT WEATHER SUCH AS PRECIPITATION OR FOG.

+ - STATION NOT QUALITY CONTROLLED BY THE NATIONAL WEATHER SERVICE.
    USE DATA WITH CAUTION...ESPECIALLY DEWPOINT AND RELATIVE
    HUMIDITY OBSERVATIONS.

INZ001>003-010>013-019-020-241200-
NORTHWEST INDIANA

CITY           SKY/WX    TMP DP  RH WIND       PRES   REMARKS
GARY /AIRPORT/ MOCLDY    63  48  59 SE7       30.20F
RENSSELAER +   MOCLDY    57  52  82 E3        30.21S

$$

LMZ046-743>745-241200-
SOUTHERN LAKE MICHIGAN

STATION/POSITION TIME  TEMP    WIND        PRES    WAVE
                       AIR SEA DIR/SP/G            HT
                 (UTC) (F)     (DEG/KT/KT) (MB)    (FT)
BURNS HARBOR     1000   66     150/  6/  9 1023.0F
MICHIGAN CITY    1000   64     130/  8/  9   N/A
5NW MICH CITY    1000   58 54  120/  4/  6   N/A     0

$$

INZ004-005-014>016-021>024-241200-
NORTH CENTRAL INDIANA

CITY           SKY/WX    TMP DP  RH WIND       PRES   REMARKS
GOSHEN         MOCLDY    54  50  86 CALM      30.25S
SOUTH BEND     CLOUDY    58  49  72 E5        30.24F
WARSAW +       MOCLDY    55  46  71 E3        30.25S

$$

INZ006>009-017-018-025>027-241200-
NORTHEAST INDIANA

CITY           SKY/WX    TMP DP  RH WIND       PRES   REMARKS
ANGOLA *+      CLEAR     52  50  93 CALM      30.27S
FORT WAYNE     MOCLDY    55  48  77 E3        30.27R

$$

INZ028-029-035-036-043>045-051>053-241200-
WEST CENTRAL INDIANA

CITY           SKY/WX    TMP DP  RH WIND       PRES   REMARKS
CRAWFORDSVL +  CLOUDY    59  46  61 SE5       30.21R
GREENCASTLE +  CLOUDY    59  48  67 SE3       30.22R
LAFAYETTE      MOCLDY    60  51  72 E3        30.21R
TERRE HAUTE    MOCLDY    62  50  64 SE5       30.19S

$$

INZ030>032-037>040-046>048-054>057-064-065-241200-
CENTRAL INDIANA

CITY           SKY/WX    TMP DP  RH WIND       PRES   REMARKS
GREENWOOD *+   MOCLDY    63  46  55 SE8       30.24S
INDIANAPOLIS   CLOUDY    62  48  60 SE10      30.21S
-EAGLE CREEK   CLOUDY    62  49  62 SE3       30.22S
KOKOMO *+      MOCLDY    57  48  72 SE6       30.23S
MT COMFORT *+  PTCLDY    61  41  48 SE7       30.24S
SHELBYVILLE    PTCLDY    65  50  58 SE7       30.23S

$$

INZ033-034-041-042-049-050-058-059-241200-
EAST CENTRAL INDIANA

CITY           SKY/WX    TMP DP  RH WIND       PRES   REMARKS
MUNCIE         PTCLDY    63  47  55 S8        30.25S

$$

INZ060-061-067>069-081>083-085>088-241200-
SOUTHWEST INDIANA

CITY           SKY/WX    TMP DP  RH WIND       PRES   REMARKS
EVANSVILLE     CLOUDY    61  54  77 CALM      30.21R
HUNTINGBURG *+ MOCLDY    63  52  67 SE6       30.23R

$$

INZ062-063-066-070>080-084-089>092-241200-
SOUTH CENTRAL AND SOUTHEAST INDIANA

CITY           SKY/WX    TMP DP  RH WIND       PRES   REMARKS
BLOOMINGTON    CLOUDY    61  52  72 SE5       30.22S
MADISON *+     MOCLDY    63  48  59 SE6       30.28R
SEYMOUR +      MOCLDY    63  52  67 SE5       30.24R

$$




USA.gov is the U.S. government's official web portal to all federal, state and local government web resources and services.